Regional Weather Roundup
Issued by NWS

Home | Current Version | Previous Version | Text Only | Print | Product List | Glossary Off
Versions: 1 2 3 4 5 6 7 8 9 10 11 12 13 14 15 16 17 18 19 20 21 22 23 24 25 26 27 28 29 30 31 32 33 34 35 36 37 38 39 40 41 42 43 44 45 46 47 48 49 50

000
ASUS43 KLOT 220109
RWRIL

ILLINOIS REGIONAL WEATHER ROUNDUP
NATIONAL WEATHER SERVICE CHICAGO/ROMEOVILLE IL
800 PM CDT SAT OCT 21 2017

NOTE: "FAIR" INDICATES FEW OR NO CLOUDS BELOW 12,000 FEET WITH NO
SIGNIFICANT WEATHER AND/OR OBSTRUCTIONS TO VISIBILITY.

* THESE STATIONS ARE NOT UNDER NWS QUALITY CONTROL. THEY ALSO MAY NOT
  REPORT WEATHER SUCH AS PRECIPITATION OR FOG.

ILZ001-002-007-009-015-016-024-220200-
NORTHWEST ILLINOIS

CITY           SKY/WX    TMP DP  RH WIND       PRES   REMARKS
MOLINE         PTCLDY    73  61  65 S14       29.89F
STERLING*      CLOUDY    72  60  66 SE8         N/A
SAVANNA*       CLEAR     71  60  69 S15       29.90F
$$

ILZ003-004-008-010-011-017-018-220200-
NORTH CENTRAL ILLINOIS

CITY           SKY/WX    TMP DP  RH WIND       PRES   REMARKS
ROCKFORD       PTCLDY    69  58  67 S15       29.96F
FREEPORT*      CLOUDY    70  58  66 S14       29.95S
ROCHELLE*      MOCLDY    69  58  70 S13       29.97S
DE KALB*       MOCLDY    68  59  71 S15       29.99S
PERU*          PTCLDY    70  58  64 S14       29.99R
$$

ILZ005-006-012>014-019>023-220200-
NORTHEAST ILLINOIS

CITY           SKY/WX    TMP DP  RH WIND       PRES   REMARKS
CHICAGO-OHARE  PTCLDY    71  57  61 S15       30.00S
CHICAGO-MIDWAY PTCLDY    72  58  61 S17G29    30.02S
AURORA         MOCLDY    71  58  63 S13G24    30.00S
LANSING*       CLEAR     69  60  71 S13G18    30.04S
JOLIET*        PTCLDY    71  59  66 S10       30.02S
WAUKEGAN       PTCLDY    72  58  61 S16       29.99R
DUPAGE AIRPORT CLEAR     70  59  68 S14       29.99S
KANKAKEE*      CLEAR     69  57  65 S12G20    30.05F
WHEELING       CLEAR     73  59  61 S15       30.01R
MORRIS*        PTCLDY    70  58  64 S14       30.00S
ROMEOVILLE*    PTCLDY   N/A N/A N/A S15       30.02S
NORTHERLY ISL    N/A     71  55  56 S16         N/A
$$

LMZ740>746-220200-
SOUTHERN LAKE MICHIGAN

STATION/POSITION SKY/WX   TEMP    WIND        PRES    VSBY  WAVE
                          AIR SEA DIR/SP/G                  HT/PER
                          (F)     (DEG/KT/KT) (MB)    (MI)  (FT/S)
SOUTHERN BUOY              66 61  150/ 17/ 19 1016.0          3/ 4
WILMETTE HARBOR            65 59  160/ 14/ 17   N/A           2/ 3
HARRISON CRIB              69     170/ 22/ 23   N/A
BURNHAM HARBOR             71     170/ 16/ 17   N/A
CALUMET HARBOR             72     160/ 11/ 16 1016.0F
BURNS HARBOR               71     160/ 12/ 18 1017.6S
MICHIGAN CITY              71     150/ 10/ 13   N/A
MICHIGAN CITY 6N           67 58  180/ 14/ 19   N/A           1/ 2
ST. JOSEPH                 67 59  180/ 14/ 19 1017.7          2/ 3
$$

ILZ025>027-034>036-040-047-049-050-058-095>099-220200-
WEST-CENTRAL ILLINOIS

CITY           SKY/WX    TMP DP  RH WIND       PRES   REMARKS
QUINCY         CLOUDY    73  62  68 SE10      29.92S
MACOMB*        CLOUDY    72  61  68 SE12      29.95F
JACKSONVILLE*  MOCLDY    72  59  63 SE15      29.96S
PITTSFIELD*    MOCLDY    74  63  68 SE10G16   29.95S
$$

ILZ028>032-037-038-041>044-048-051>054-059>061-220200-
CENTRAL ILLINOIS

CITY           SKY/WX    TMP DP  RH WIND       PRES   REMARKS
PONTIAC        CLEAR     70  61  73 S13       30.02F
BLOOMINGTON    CLEAR     67  59  75 S14       30.02F
DECATUR        CLEAR     70  57  63 S14       30.03S
PEORIA         CLEAR     72  59  63 S16G23    29.97S
LACON*         CLEAR     72  58  63 S10G20    29.97S
LINCOLN*       MOCLDY    71  60  66 S12       30.00F
SPRINGFIELD    PTCLDY    72  59  63 S14G21    29.99S
TAYLORVILLE    CLEAR     68  57  67 SE10G17   30.01F
$$

ILZ033-039-045-046-055>057-062-063-220200-
EAST-CENTRAL ILLINOIS

CITY           SKY/WX    TMP DP  RH WIND       PRES   REMARKS
CHAMPAIGN      CLEAR     70  56  61 SE14      30.06S
DANVILLE*      CLEAR     67  55  66 SE9       30.07S
RANTOUL*       CLEAR     69  59  70 SE10      30.06S
MATTOON        CLEAR     68  57  68 SE12      30.06S
PARIS*         CLEAR     65  56  72 SE13      30.10S
$$

ILZ079-100>102-220200-
SOUTHWEST ILLINOIS

CITY           SKY/WX    TMP DP  RH WIND       PRES   REMARKS
ALTON          CLOUDY    72  59  64 S12       29.99S
BELLEVILLE     MOCLDY    72  58  60 S12       30.03S
CAHOKIA*       MOCLDY    75  57  53 SE12      29.98F
SPARTA*        CLEAR     71  58  64 SE7       30.04R
$$

ILZ064>066-069>071-074>076-080>082-084>086-088>090-092>094-220200-
SOUTH-CENTRAL ILLINOIS

CITY           SKY/WX    TMP DP  RH WIND       PRES   REMARKS
CARBONDALE     CLEAR     67  58  72 SE7       30.05S
CAIRO*         CLEAR     70  61  73 SE8       30.06F
EFFINGHAM*     CLEAR     69  57  66 E8        30.08S
MARION         CLEAR     71  58  62 SE7       30.07S
MT. VERNON     CLEAR     70  56  61 SE6       30.07S
CENTRALIA*     CLEAR     71  57  61 SE10      30.04F
SALEM*         CLEAR     73  55  54 SE7       30.06S
METROPOLIS*    CLEAR     71  60  67 SE5       30.09S
$$

ILZ067-068-072-073-078-083-087-091-220200-
SOUTHEAST ILLINOIS

CITY           SKY/WX    TMP DP  RH WIND       PRES   REMARKS
LAWRENCEVILLE  CLEAR     66  55  67 SE9       30.11S
FLORA*         CLEAR     66  57  71 SE7       30.08S
FAIRFIELD*     CLEAR     69  56  64 SE5       30.07S
HARRISBURG*    CLEAR     71  59  65 SE10      30.08S
ROBINSON*      PTCLDY    65  55  67 SE6       30.11F
CARMI*         CLOUDY    68  56  66 SE10      30.09R
$$

ABBREVIATIONS USED IN REMARKS
   TC - TEMPERATURE IN CELSIUS
  WCI - WIND CHILL INDEX
   HX - HEAT INDEX
  VSB - VISIBILITY
$$




USA.gov is the U.S. government's official web portal to all federal, state and local government web resources and services.